KUIPER-00208

导读

KUIPER-00208是亚马逊Leo星座(原柯伊伯计划)的低轨互联网卫星,于2026年2月12日由法国阿丽亚娜航天发射,隶属于全球卫星互联网组网项目。该项目旨在为全球网络覆盖不足区域提供高速低延迟互联网服务,KUIPER-00208的发射是Leo星座一期组网建设的组成部分,助力项目推进FCC要求的2026年7月前完成半数卫星部署的目标,推动全球宽带覆盖进程。

基本信息
目录编号:
67775
目录名称:
KUIPER-00208
国际标识:
2026-030M
轨道中心:
EARTH
卫星名称:
KUIPER-00208
卫星全名:
KUIPER-00208
卫星状态:
在轨 (已飞行212 天)
发射日期:
2026-02-12 UTC
国别 :
美国 (US)
星等 :
--
该卫星已列入 空间交会检测服务 Space Conjunction Data Service (SCDS) ,当前飞行风险评估等级: 无高风险
轨道信息
数据来源 国际轨道数据
星历时间: 2026-09-12T02:24:10+0800
13小时前
查看轨道信息
半长轴: 7007.695km
偏心率: 0.0001386
轨道倾角: 51.898°
近地点辐角 97.203°
升交点赤经 107.766°
平近点角 262.909°
近地点: 628.586km
远地点: 630.53km
周期: 97.302分钟
每日圈数: 14.79926
详细信息
使用方式:
暂无
2D轨道图
3D轨道图
轨道高度分析图
轨道倾角分析图
轨道综合分析图
查看轨道综合分析图
交会数据列表
事件ID 空间交会对象 最接近时刻(TCA) 交会距离 交会风险概率(CRP) 交会风险指数(CRI) 操作
CDM_260913-065503-872806-777522
2026-09-13T
06:55:14+0000
1.260 km
极远距离
1.203847E-5 中风险 0.57
CDM_260912-222702-849306-777523
2026-09-12T
22:27:07+0000
2.839 km
极远距离
1.114774E-6 低风险 0.36
与全量物体交会距离演化趋势
与全量物体交会风险概率演化趋势